TURKSAT 5A

Last updated on Fri Sep 19 2025 00:02:51 GMT+0000 (Coordinated Universal Time)

1 47306U 21001A 25261.15994056 .00000134 00000+0 00000+0 0 9995 2 47306 0.0288 97.7902 0000191 186.8915 161.1553 1.00271311 17234
UTC large
Height (km)
Speed (km/s)
/
Latitude / Longitude
Inclination (degrees)
Orbital Period (minutes)
Azimuth
Elevation
Range (km)
Doppler Factor

Next 0 passes for location: London (51.5072 / 0.1276)

Sorry there are no passes over London.